Regional Weather Roundup
Issued by NWS

Home | Current Version | Previous Version | Graphics & Text | Print | Product List | Glossary On
Versions: 1 2 3 4 5 6 7 8 9 10 11 12 13 14 15 16 17 18 19 20 21 22 23 24 25 26 27 28 29 30 31 32 33 34 35 36 37 38 39 40 41 42 43 44 45 46 47 48 49 50
000
ASUS43 KLMK 241510
RWRKY
KENTUCKY REGIONAL WEATHER ROUNDUP
NATIONAL WEATHER SERVICE LOUISVILLE KY
1100 AM EDT SAT JUN 24 2017

NOTE "FAIR" INDICATES FEW OR NO CLOUDS BELOW 12,000 FEET
WITH NO SIGNIFICANT WEATHER AND/OR OBSTRUCTIONS TO VISIBILITY.

KYZ001>023-026-027-061>063-070>075-241600-
WESTERN AND SOUTH CENTRAL KENTUCKY

CITY           SKY/WX    TMP DP  RH WIND       PRES   REMARKS
PADUCAH        SUNNY     76  59  55 N7        30.08R
HENDERSON      SUNNY     73  59  61 NW7       30.07R
OWENSBORO      SUNNY     74  61  63 W7        30.06R
HOPKINSVILLE   MOSUNNY   74  60  60 N8        30.07R
BOWLING GREEN  SUNNY     75  62  64 NW8       30.05R
GLASGOW        SUNNY     75  63  66 NW7       30.04S
$$

KYZ024-025-028>034-038-045-046-053-241600-
NORTH CENTRAL KENTUCKY

CITY           SKY/WX    TMP DP  RH WIND       PRES   REMARKS
LOUISVILLE/SDF MOSUNNY   75  61  61 W8        30.02S
LOUISVILLE/LOU SUNNY     74  59  59 W8        30.03R
FORT KNOX      SUNNY     72  62  71 W8        30.02S
$$

KYZ035>037-039>044-047>052-055>060-089>105-241600-
NORTHEAST KENTUCKY

CITY           SKY/WX    TMP DP  RH WIND       PRES   REMARKS
LEXINGTON      SUNNY     74  61  63 VRB7      30.02R
COVINGTON      MOSUNNY   71  61  70 VRB5      30.00R
FRANKFORT      SUNNY     73  60  63 W8        30.01R
$$

KYZ054-064>069-076>088-106>120-241600-
SOUTHEAST KENTUCKY

CITY           SKY/WX    TMP DP  RH WIND       PRES   REMARKS
JACKSON        MOSUNNY   72  64  76 NW8       30.02R
LONDON         MOSUNNY   77  59  53 NW7       30.02R
SOMERSET       SUNNY     73  59  60 N7        30.04S
MIDDLESBORO    PTSUNNY   76  70  83 CALM      30.01F
MONTICELLO     MOSUNNY   76  66  71 NW8       30.05R
$$





USA.gov is the U.S. government's official web portal to all federal, state and local government web resources and services.